Radiation Dose at Monitoring Post of Fukushima Daini Nuclear Power Station
Date,Time,MP-1(microSv/h),MP-2(microSv/h),MP-3(microSv/h),MP-4(microSv/h),MP-5(microSv/h),MP-6(microSv/h),MP-7(microSv/h),Wind Direction,Wind Velocity(m/s),Rain
2014/03/17,00:00,0.8,0.5,0.8,0.7,0.7,0.3,0.3,west,0.8,No
2014/03/17,00:10,0.8,0.5,0.8,0.7,0.7,0.3,0.3,south,1.2,No
2014/03/17,00:20,0.8,0.5,0.8,0.7,0.7,0.3,0.3,south-southwest,1.4,No
2014/03/17,00:30,0.8,0.5,0.8,0.7,0.7,0.3,0.3,south-southwest,2.2,No
2014/03/17,00:40,0.8,0.5,0.8,0.7,0.7,0.3,0.3,southwest,1.6,No
2014/03/17,00:50,0.7,0.5,0.8,0.7,0.7,0.3,0.3,west,1.5,No
2014/03/17,01:00,0.7,0.5,0.8,0.7,0.7,0.3,0.3,northwest,1.5,No
2014/03/17,01:10,0.8,0.5,0.8,0.7,0.7,0.3,0.3,north,1.4,No
2014/03/17,01:20,0.7,0.5,0.8,0.7,0.7,0.3,0.3,northwest,0.8,No
2014/03/17,01:30,0.7,0.5,0.8,0.7,0.7,0.3,0.3,northwest,1.4,No
2014/03/17,01:40,0.8,0.5,0.8,0.7,0.7,0.3,0.3,west-northwest,2.2,No
2014/03/17,01:50,0.7,0.5,0.8,0.7,0.7,0.3,0.3,west-northwest,2.8,No
2014/03/17,02:00,0.7,0.5,0.8,0.7,0.7,0.3,0.3,west-northwest,3.4,No
2014/03/17,02:10,0.7,0.5,0.8,0.7,0.7,0.3,0.3,west,2.5,No
2014/03/17,02:20,0.8,0.5,0.8,0.7,0.7,0.3,0.3,west,2.4,No
2014/03/17,02:30,0.8,0.5,0.8,0.7,0.7,0.3,0.3,west-northwest,2.2,No
2014/03/17,02:40,0.8,0.5,0.8,0.7,0.7,0.3,0.3,west-northwest,2.5,No
2014/03/17,02:50,0.7,0.5,0.8,0.7,0.7,0.3,0.3,west-northwest,2.0,No
2014/03/17,03:00,0.7,0.5,0.8,0.7,0.7,0.3,0.3,west-northwest,1.4,No
2014/03/17,03:10,0.7,0.5,0.8,0.7,0.7,0.3,0.3,west-northwest,2.0,No
2014/03/17,03:20,0.8,0.5,0.8,0.7,0.7,0.3,0.3,northwest,3.1,No
2014/03/17,03:30,0.7,0.5,0.8,0.7,0.7,0.3,0.3,northwest,3.3,No
2014/03/17,03:40,0.8,0.5,0.8,0.7,0.7,0.3,0.3,west-northwest,3.9,No
2014/03/17,03:50,0.8,0.5,0.8,0.7,0.7,0.3,0.3,northwest,3.4,No
2014/03/17,04:00,0.7,0.5,0.8,0.7,0.7,0.3,0.3,northwest,2.4,No
2014/03/17,04:10,0.7,0.5,0.8,0.7,0.7,0.3,0.3,west-northwest,2.2,No
2014/03/17,04:20,0.7,0.5,0.8,0.7,0.7,0.3,0.3,west-northwest,1.8,No
2014/03/17,04:30,0.7,0.5,0.8,0.7,0.7,0.3,0.3,west-northwest,1.7,No
2014/03/17,04:40,0.7,0.5,0.8,0.7,0.7,0.3,0.3,west-northwest,1.7,No
2014/03/17,04:50,0.7,0.5,0.8,0.7,0.7,0.3,0.3,west-northwest,1.7,No
2014/03/17,05:00,0.8,0.5,0.8,0.7,0.7,0.3,0.3,west,1.9,No
2014/03/17,05:10,0.7,0.5,0.8,0.7,0.7,0.3,0.3,-,CALM,No
2014/03/17,05:20,0.8,0.5,0.8,0.7,0.7,0.3,0.3,-,CALM,No
2014/03/17,05:30,0.7,0.5,0.8,0.7,0.7,0.3,0.3,-,CALM,No
2014/03/17,05:40,0.7,0.5,0.8,0.7,0.7,0.3,0.3,-,CALM,No
2014/03/17,05:50,0.7,0.5,0.8,0.7,0.7,0.3,0.3,-,CALM,No
2014/03/17,06:00,0.7,0.5,0.8,0.7,0.7,0.3,0.3,-,CALM,No
2014/03/17,06:10,0.8,0.5,0.8,0.7,0.7,0.3,0.3,-,CALM,No
2014/03/17,06:20,0.7,0.5,0.8,0.7,0.7,0.3,0.3,-,CALM,No
2014/03/17,06:30,0.8,0.5,0.8,0.7,0.7,0.3,0.3,-,CALM,No
2014/03/17,06:40,0.8,0.5,0.8,0.7,0.7,0.3,0.3,-,CALM,No
2014/03/17,06:50,0.7,0.5,0.8,0.7,0.7,0.3,0.3,-,CALM,No
2014/03/17,07:00,0.8,0.5,0.8,0.7,0.7,0.3,0.3,-,CALM,No
2014/03/17,07:10,0.7,0.5,0.8,0.7,0.7,0.3,0.3,-,CALM,No
2014/03/17,07:20,0.7,0.5,0.8,0.7,0.7,0.3,0.3,-,CALM,No
2014/03/17,07:30,0.8,0.5,0.8,0.7,0.7,0.3,0.3,north-northwest,0.5,No
2014/03/17,07:40,0.8,0.5,0.8,0.7,0.7,0.3,0.3,north-northwest,1.1,No
2014/03/17,07:50,0.7,0.5,0.8,0.7,0.7,0.3,0.3,north-northwest,2.3,No
2014/03/17,08:00,0.7,0.5,0.8,0.7,0.7,0.3,0.3,north-northwest,3.0,No
2014/03/17,08:10,0.8,0.5,0.8,0.7,0.7,0.3,0.3,north,4.5,No
2014/03/17,08:20,0.8,0.5,0.8,0.7,0.7,0.3,0.3,north-northeast,2.8,No
2014/03/17,08:30,0.8,0.5,0.8,0.7,0.7,0.3,0.3,north,1.9,No
2014/03/17,08:40,0.8,0.5,0.8,0.7,0.7,0.3,0.3,north-northeast,3.3,No
2014/03/17,08:50,0.8,0.5,0.8,0.7,0.7,0.3,0.3,north,2.8,No
2014/03/17,09:00,0.8,0.5,0.8,0.7,0.7,0.3,0.3,north-northeast,2.5,No
2014/03/17,09:10,0.8,0.5,0.8,0.7,0.7,0.3,0.3,north-northeast,1.9,No
2014/03/17,09:20,0.8,0.5,0.8,0.7,0.7,0.3,0.3,northeast,2.2,No
2014/03/17,09:30,0.8,0.5,0.8,0.7,0.7,0.3,0.3,northeast,2.5,No
2014/03/17,09:40,0.7,0.5,0.8,0.7,0.7,0.3,0.3,north-northeast,2.4,No
2014/03/17,09:50,0.8,0.5,0.8,0.7,0.7,0.3,0.3,east-northeast,2.6,No
2014/03/17,10:00,0.8,0.5,0.8,0.7,0.7,0.3,0.3,east-southeast,1.2,No
2014/03/17,10:10,0.8,0.5,0.8,0.7,0.7,0.3,0.3,east-southeast,2.8,No
2014/03/17,10:20,0.8,0.5,0.8,0.7,0.7,0.3,0.3,northeast,2.9,No
2014/03/17,10:30,0.7,0.5,0.8,0.7,0.7,0.3,0.3,northeast,3.2,No
2014/03/17,10:40,0.7,0.5,0.8,0.7,0.7,0.3,0.3,north,3.6,No
2014/03/17,10:50,0.7,0.5,0.8,0.7,0.7,0.3,0.3,north-northwest,2.7,No
2014/03/17,11:00,0.8,0.5,0.8,0.7,0.7,0.3,0.3,northwest,3.1,No
2014/03/17,11:10,0.8,0.5,0.8,0.7,0.7,0.3,0.3,-,CALM,No
2014/03/17,11:20,0.8,0.5,0.8,0.7,0.7,0.3,0.3,east,4.1,No
2014/03/17,11:30,0.7,0.5,0.8,0.7,0.7,0.3,0.3,east-northeast,3.9,No
2014/03/17,11:40,0.7,0.5,0.8,0.7,0.7,0.3,0.3,east-northeast,2.5,No
2014/03/17,11:50,0.7,0.5,0.8,0.7,0.7,0.3,0.3,east-northeast,4.7,No
2014/03/17,12:00,0.8,0.5,0.8,0.7,0.7,0.3,0.3,east,4.2,No
2014/03/17,12:10,0.8,0.5,0.8,0.7,0.7,0.3,0.3,south,2.7,No
2014/03/17,12:20,0.8,0.5,0.8,0.7,0.7,0.3,0.3,southeast,2.6,No
2014/03/17,12:30,0.8,0.5,0.8,0.7,0.7,0.3,0.3,east-southeast,2.8,No
2014/03/17,12:40,0.8,0.5,0.8,0.7,0.7,0.3,0.3,east-southeast,2.8,No
2014/03/17,12:50,0.8,0.5,0.8,0.7,0.7,0.3,0.3,south-southeast,1.1,No
2014/03/17,13:00,0.8,0.5,0.8,0.7,0.7,0.3,0.3,south,0.5,No
2014/03/17,13:10,0.8,0.5,0.8,0.7,0.7,0.3,0.3,south,0.7,No
2014/03/17,13:20,0.8,0.5,0.8,0.7,0.7,0.3,0.3,south-southeast,0.7,No
2014/03/17,13:30,0.8,0.5,0.8,0.7,0.7,0.3,0.3,south,1.7,No
2014/03/17,13:40,0.8,0.5,0.8,0.7,0.7,0.3,0.3,south,1.6,No
2014/03/17,13:50,0.8,0.5,0.8,0.7,0.7,0.3,0.3,south,1.4,No
2014/03/17,14:00,0.8,0.5,0.8,0.7,0.7,0.3,0.3,south-southeast,0.8,No
2014/03/17,14:10,0.8,0.5,0.8,0.7,0.7,0.3,0.3,south-southeast,1.7,No
2014/03/17,14:20,0.8,0.5,0.8,0.7,0.7,0.3,0.3,south,1.1,No
2014/03/17,14:30,0.8,0.5,0.8,0.7,0.7,0.3,0.3,-,CALM,No
2014/03/17,14:40,0.8,0.5,0.8,0.7,0.7,0.3,0.3,south,1.2,No
2014/03/17,14:50,0.8,0.5,0.8,0.7,0.7,0.3,0.3,-,CALM,No
2014/03/17,15:00,0.8,0.5,0.8,0.7,0.7,0.3,0.3,south,2.2,No
2014/03/17,15:10,0.8,0.5,0.8,0.7,0.7,0.3,0.3,south,1.4,No
2014/03/17,15:20,0.8,0.5,0.8,0.7,0.7,0.3,0.3,south,1.1,No
2014/03/17,15:30,0.8,0.5,0.8,0.7,0.7,0.3,0.3,south,2.2,No
2014/03/17,15:40,0.8,0.5,0.8,0.7,0.7,0.3,0.3,south,3.0,No
2014/03/17,15:50,0.8,0.5,0.8,0.7,0.7,0.3,0.3,south,3.6,No
2014/03/17,16:00,0.8,0.5,0.8,0.7,0.7,0.3,0.3,south,3.4,No
2014/03/17,16:10,0.8,0.5,0.8,0.7,0.7,0.3,0.3,south-southeast,4.3,No
2014/03/17,16:20,0.8,0.5,0.8,0.7,0.7,0.3,0.3,south,3.7,No
2014/03/17,16:30,0.8,0.5,0.8,0.7,0.7,0.3,0.3,south,4.5,No
2014/03/17,16:40,0.7,0.5,0.8,0.7,0.7,0.3,0.3,south,3.3,No
2014/03/17,16:50,0.8,0.5,0.8,0.7,0.7,0.3,0.3,south,5.1,No
2014/03/17,17:00,0.8,0.5,0.8,0.7,0.7,0.3,0.3,south,4.6,No
2014/03/17,17:10,0.8,0.5,0.8,0.7,0.7,0.3,0.3,south,5.4,No
2014/03/17,17:20,0.8,0.5,0.8,0.7,0.7,0.3,0.3,south,6.7,No
2014/03/17,17:30,0.8,0.5,0.8,0.7,0.7,0.3,0.3,south,5.9,No
2014/03/17,17:40,0.8,0.5,0.8,0.7,0.7,0.3,0.3,south,6.4,No
2014/03/17,17:50,0.8,0.5,0.8,0.7,0.7,0.3,0.3,south,6.9,No
2014/03/17,18:00,0.8,0.5,0.8,0.7,0.7,0.3,0.3,south-southwest,6.4,No
2014/03/17,18:10,0.8,0.5,0.8,0.7,0.7,0.3,0.3,south-southwest,6.1,No
2014/03/17,18:20,0.8,0.5,0.8,0.7,0.7,0.3,0.3,south-southwest,6.2,No
2014/03/17,18:30,0.8,0.5,0.8,0.7,0.7,0.3,0.3,south-southwest,6.8,No
2014/03/17,18:40,0.8,0.5,0.8,0.7,0.7,0.3,0.3,south-southwest,7.3,No
2014/03/17,18:50,0.8,0.5,0.8,0.7,0.7,0.3,0.3,south-southwest,7.6,No
2014/03/17,19:00,0.8,0.5,0.8,0.7,0.7,0.3,0.3,south-southwest,7.2,No
2014/03/17,19:10,0.8,0.5,0.8,0.7,0.7,0.3,0.3,south-southwest,6.9,No
2014/03/17,19:20,0.8,0.5,0.8,0.7,0.7,0.3,0.3,south,6.7,No
2014/03/17,19:30,0.8,0.5,0.8,0.7,0.7,0.3,0.3,south,6.6,No
2014/03/17,19:40,0.8,0.5,0.8,0.7,0.7,0.3,0.3,south-southwest,6.4,No
2014/03/17,19:50,0.8,0.5,0.8,0.7,0.7,0.3,0.3,south-southwest,7.7,No
2014/03/17,20:00,0.8,0.5,0.8,0.7,0.7,0.3,0.3,south,7.2,No
2014/03/17,20:10,0.8,0.5,0.8,0.7,0.7,0.3,0.3,south,7.3,No
2014/03/17,20:20,0.8,0.5,0.8,0.7,0.7,0.3,0.3,south-southwest,8.2,No
2014/03/17,20:30,0.8,0.5,0.8,0.7,0.7,0.3,0.3,south-southwest,8.4,No
2014/03/17,20:40,0.8,0.5,0.8,0.7,0.7,0.3,0.3,south-southwest,8.4,No
2014/03/17,20:50,0.8,0.5,0.8,0.7,0.7,0.3,0.3,south-southwest,8.7,No
2014/03/17,21:00,0.8,0.5,0.8,0.7,0.7,0.3,0.3,south-southwest,8.6,No
2014/03/17,21:10,0.8,0.5,0.8,0.7,0.7,0.3,0.3,south-southwest,7.9,No
2014/03/17,21:20,0.8,0.5,0.8,0.7,0.7,0.3,0.3,south-southwest,8.1,No
2014/03/17,21:30,0.8,0.5,0.8,0.7,0.7,0.3,0.3,south-southwest,8.3,No
2014/03/17,21:40,0.8,0.5,0.8,0.7,0.7,0.3,0.3,south-southwest,9.8,No
2014/03/17,21:50,0.8,0.5,0.8,0.7,0.7,0.3,0.3,south-southwest,9.7,No
2014/03/17,22:00,0.8,0.5,0.8,0.7,0.7,0.3,0.3,south-southwest,10.4,No
2014/03/17,22:10,0.8,0.5,0.8,0.7,0.7,0.3,0.3,south-southwest,9.7,No
2014/03/17,22:20,0.8,0.5,0.8,0.7,0.7,0.3,0.3,south-southwest,10.4,No
2014/03/17,22:30,0.8,0.5,0.8,0.7,0.7,0.3,0.3,south-southwest,9.3,No
2014/03/17,22:40,0.8,0.5,0.8,0.7,0.7,0.3,0.3,south-southwest,9.8,No
2014/03/17,22:50,0.8,0.5,0.8,0.7,0.7,0.3,0.3,south-southwest,9.7,No
2014/03/17,23:00,0.8,0.5,0.8,0.7,0.7,0.3,0.3,south-southwest,9.1,No
2014/03/17,23:10,0.8,0.5,0.8,0.7,0.7,0.3,0.3,south-southwest,8.9,No
2014/03/17,23:20,0.8,0.5,0.8,0.7,0.7,0.3,0.3,south-southwest,10.0,No
2014/03/17,23:30,0.8,0.5,0.8,0.7,0.7,0.3,0.3,south-southwest,8.3,No
2014/03/17,23:40,0.8,0.5,0.8,0.7,0.7,0.3,0.3,south-southwest,8.2,No
2014/03/17,23:50,0.8,0.5,0.8,0.7,0.7,0.3,0.3,south-southwest,7.5,No
